Showing default

OPS 9314 (IDSCS 4), 2218

Orbit data source: Space-Track

OPS 9314 (IDSCS 4), 2218 is a payload satellite owned by USAF SSD (US) in GEO that was launched on Thu, 16 Jun 1966 UTC via a TITAN IIIC launch vehicle from the Air Force Eastern Test Range (AFETR). Payload-class satellites include a variety of spacecraft equipped with specific instruments for various scientific and technological missions. These include communications satellites like Starlink; space stations such as the ISS; scientific satellites like the Hubble; Earth observation satellites from companies like Planet Labs, Umbra, and HawkEye 360; GPS; miniature CubeSats for education and research; and military/defense satellites.

Not visible in the next 10 days
Identifier
2218, 1966-053E
Orbit
GEO
Country
Flag of USUS
Related business
Manufacturer
Philco-Ford WDL
Mission
Non-operational spacecraft
Bus & Motor
IDCSP, Unknown motor
Mass
45 kg wet, 45 kg dry
Launch date (UTC)
1966-06-16 (60 years ago)
Launch vehicle
TITAN IIIC
Launch site
Air Force Eastern Test Range (AFETR)
Object type
Payload
Rocket body
Debris
Shape & HBR
ICO POLY, 0.5 m
Radar Cross Section
Medium (>0.1 m² and <1 m²)

Expand to show TLE details & history
Last TLE update: 3 days ago

TLE from 3 days ago
0 OPS 9314 (IDSCS 4)
1 02218U 66053E   26203.99401321 -.00000113  00000-0  00000-0 0  9991
2 02218   8.6317  44.4242 0043531 199.7942 100.4621  1.07585867235783
Epoch: 2026-07-22T23:51Z
TLE epoch observation values (Epoch: 2026-07-22T23:51:22.741Z)
Latitude
-7.43201°
Longitude
46.87899°
Altitude
33,885.942 km
Speed
3.145 km/s
True Right ascension
23h 01m 51s
True Declination
-7° 25' 27"
Sunlit
Object was in daylight at epoch
Visualization orbit readout
Latitude
Unknown
Longitude
Unknown
Altitude
Unknown
Speed
Unknown
Apparent Right ascension
Unknown
Apparent Declination
Unknown
Sunlit
N/A
Visualization observer readout
Local Sidereal Time
00:10:22
Azimuth
Unknown
Elevation
Unknown
Doppler factor
Unknown
Orbital elements
Apogee altitude
34,029.47 km
Perigee altitude
33,679.198 km
Semi-major axis
40,232.471 km
Eccentricity
0.00435
Inclination
8.6317°
RAAN
44.4242°
Arg. of periapsis
199.7942°
True anomaly
100.95215°
Mean anomaly
100.4621°
Eccentric anomaly
100.70717°
Mean motion
0.26895 °/min
Orbital period
1,338.52 mins
BSTAR
0
Loading maneuver chart data...
Computing Atmospheric mass density...
Loading historical data...
Loading historical data...
Loading historical data...
Loading historical data...
Loading historical data...
Loading historical data...
Loading historical data...

Documentation

Showing up to 5 results
|